This demonstration page uses our WeatherBlox Daily Observations layout. Learn more.

39.92423, -83.80882

Hourly Observations for September 11, 2017

Temp ( °F °C ) Dew Point ( °F °C ) Humidity (%) Winds ( mph kmh ) Pressure ( in mb ) Visibility ( mi km ) Precip ( " mm )
12:56 am 00:56 Clear 51 10.6 47 8.3 86 86 ENE 7 11 30.33 1027 10 16.09344 0 0
1:56 am 01:56 Clear 49 9.4 46 7.8 90 90 ENE 6 9 30.3 1026 10 16.09344 0 0
2:56 am 02:56 Clear 49 9.4 46 7.8 90 90 ENE 6 9 30.3 1026 10 16.09344 0 0
3:56 am 03:56 Clear 48 8.9 46 7.8 93 93 ENE 8 13 30.27 1025 10 16.09344 0 0
4:56 am 04:56 Clear 48 8.9 46 7.8 93 93 E 6 9 30.27 1025 10 16.09344 0 0
5:56 am 05:56 Clear 47 8.3 45 7.2 93 93 E 6 9 30.27 1025 10 16.09344 0 0
6:56 am 06:56 Clear 49 9.4 47 8.3 93 93 E 6 9 30.27 1025 10 16.09344 0 0
7:56 am 07:56 Sunny 50 10 48 8.9 93 93 E 6 9 30.3 1026 10 16.09344 0 0
8:56 am 08:56 Sunny 53 11.7 50 10 89 89 E 8 13 30.27 1025 10 16.09344 0 0
9:56 am 09:56 Sunny 57 13.9 53 11.7 87 87 E 7 11 30.27 1025 10 16.09344 0 0
10:56 am 10:56 Sunny 61 16.1 53 11.7 75 75 E 8 13 30.27 1025 10 16.09344 0 0
11:56 am 11:56 Sunny 64 17.8 53 11.7 68 68 E 7 11 30.24 1024 10 16.09344 0 0
12:56 pm 12:56 Sunny 67 19.4 52 11.1 59 59 E 12 19 30.24 1024 10 16.09344 0 0
1:56 pm 13:56 Sunny 69 20.6 52 11.1 55 55 ENE 10 17 30.21 1023 10 16.09344 0 0
2:56 pm 14:56 Sunny 69 20.6 52 11.1 55 55 E 9 15 30.18 1022 10 16.09344 0 0
3:56 pm 15:56 Sunny 70 21.1 50 10 49 49 ENE 13 20 30.15 1021 10 16.09344 0 0
4:56 pm 16:56 Sunny 70 21.1 51 10.6 51 51 E 12 19 30.12 1020 10 16.09344 0 0
5:56 pm 17:56 Sunny 68 20 51 10.6 55 55 E 10 17 30.12 1020 10 16.09344 0 0
6:56 pm 18:56 Sunny 65 18.3 52 11.1 63 63 E 8 13 30.12 1020 10 16.09344 0 0
7:56 pm 19:56 Clear 60 15.6 53 11.7 78 78 E 7 11 30.12 1020 10 16.09344 0 0
8:56 pm 20:56 Clear 57 13.9 52 11.1 83 83 E 6 9 30.12 1020 10 16.09344 0 0
9:56 pm 21:56 Clear 56 13.3 52 11.1 87 87 E 6 9 30.09 1019 10 16.09344 0 0
10:56 pm 22:56 Clear 55 12.8 52 11.1 90 90 ENE 6 9 30.06 1018 10 16.09344 0 0
11:56 pm 23:56 Clear 55 12.8 51 10.6 87 87 ENE 8 13 30.06 1018 10 16.09344 0 0

Powered by AerisWeather